K0PFX-8 Weather Reports


Display with metric or nautical units.
time (UTC)temp
F
wind
direction
speed
MPH
gust
MPH
rain 1hr
in
rain 24hr
in
rain mn
in
humidity
%
barometer
mb
20170624015725 78 315 1.0 5.0 0.00 0.00 0.01 45 1011.9
20170624014202 78 278 4.0 3.0 0.00 0.00 0.01 44 1011.7
20170624012701 79 300 7.0 8.0 0.00 0.00 0.01 45 1011.4
20170624011155 79 330 6.0 3.0 0.00 0.00 0.01 46 1011.0
20170624005657 80 305 5.0 6.0 0.00 0.00 0.01 47 1010.9
20170624004155 80 281 3.0 1.0 0.00 0.00 0.01 45 1010.7
20170624002657 80 291 3.0 3.0 0.00 0.00 0.01 45 1010.6
20170624001155 80 20 6.0 3.0 0.00 0.00 0.01 43 1010.6
20170623235657 80 288 1.0 0.0 0.00 0.00 0.01 44 1010.6
20170623234150 80 322 4.0 0.0 0.00 0.00 0.01 43 1010.4
20170623232651 80 290 3.0 3.0 0.00 0.00 0.01 42 1010.3
20170623231150 80 276 0.0 0.0 0.00 0.00 0.01 42 1010.3
20170623225652 80 312 2.0 0.0 0.00 0.00 0.01 42 1010.1
20170623224145 80 297 2.0 6.0 0.00 0.00 0.01 42 1009.9
20170623222646 80 309 1.0 3.0 0.00 0.00 0.01 40 1009.7
20170623221141 81 273 6.0 0.0 0.00 0.00 0.01 42 1009.5
20170623215642 80 311 8.0 4.0 0.00 0.00 0.01 43 1009.5
20170623214141 80 274 6.0 4.0 0.00 0.00 0.01 41 1009.5
20170623212642 80 34 4.0 10.0 0.00 0.00 0.01 40 1009.4
20170623211138 81 350 5.0 5.0 0.00 0.00 0.01 40 1009.3
20170623205639 81 270 7.0 7.0 0.00 0.00 0.01 40 1008.9
20170623204137 82 17 6.0 0.0 0.00 0.00 0.01 39 1008.7
20170623202638 82 280 4.0 0.0 0.00 0.00 0.01 39 1008.7
20170623201136 83 319 7.0 6.0 0.00 0.00 0.01 35 1008.6
20170623195636 83 41 8.0 7.0 0.00 0.00 0.01 37 1008.0
20170623194132 84 21 8.0 8.0 0.00 0.00 0.01 43 1007.8
20170623192633 83 283 7.0 3.0 0.00 0.00 0.01 46 1007.7
20170623191129 83 281 7.0 7.0 0.00 0.00 0.01 46 1007.5
20170623185629 81 38 7.0 8.0 0.00 0.00 0.01 60 1007.4
20170623184127 80 335 8.0 6.0 0.00 0.00 0.01 69 1007.2
20170623182628 80 288 7.0 8.0 0.00 0.00 0.01 71 1007.2
20170623181123 82 15 7.0 13.0 0.00 0.00 0.01 70 1007.0
20170623175624 82 311 7.0 6.0 0.00 0.00 0.01 68 1006.9
20170623174118 82 267 8.0 9.0 0.00 0.00 0.01 67 1007.0
20170623172619 81 288 5.0 8.0 0.00 0.00 0.01 71 1007.1
20170623171118 81 325 10.0 7.0 0.00 0.00 0.01 71 1006.9
20170623165620 82 267 6.0 10.0 0.00 0.00 0.01 72 1006.8
20170623164115 82 15 3.0 8.0 0.00 0.00 0.01 69 1006.6
20170623162617 81 329 4.0 5.0 0.00 0.00 0.01 71 1006.6
20170623161112 80 7 3.0 3.0 0.00 0.00 0.01 74 1006.4
20170623155609 79 271 5.0 2.0 0.00 0.00 0.01 79 1006.6
20170623154105 78 319 7.0 6.0 0.00 0.00 0.01 82 1006.7
20170623152606 78 260 9.0 11.0 0.00 0.00 0.01 80 1006.7
20170623151102 79 263 11.0 12.0 0.00 0.00 0.01 77 1006.4
20170623145600 79 278 6.0 5.0 0.00 0.00 0.01 84 1006.0
20170623144058 80 281 9.0 9.0 0.01 0.00 0.01 82 1005.7
20170623142600 81 263 4.0 4.0 0.01 0.00 0.01 78 1004.4
20170623141058 80 191 2.0 4.0 0.01 0.00 0.01 80 1004.5
20170623135559 81 225 0.0 0.0 0.01 0.00 0.01 81 1004.9
20170623134053 81 235 6.0 3.0 0.00 0.00 0.01 80 1005.5
20170623132555 81 231 5.0 4.0 0.00 0.00 0.01 84 1005.6
20170623131050 78 233 4.0 0.0 0.00 0.00 0.01 95 1005.7
20170623125552 76 280 4.0 0.0 0.00 0.00 0.01 95 1006.2
20170623124043 76 249 5.0 5.0 0.00 0.00 0.00 94 1006.9
20170623122545 77 235 5.0 6.0 0.00 0.00 0.00 94 1006.7
20170623121041 77 277 5.0 3.0 0.00 0.00 0.00 93 1006.6
20170623115542 76 269 5.0 7.0 0.00 0.00 0.00 94 1006.5
20170623114036 76 269 0.0 3.0 0.00 0.00 0.00 94 1006.4
20170623112537 76 257 0.0 0.0 0.00 0.00 0.00 94 1006.2
20170623111036 76 198 4.0 3.0 0.00 0.00 0.00 94 1005.7
20170623105538 76 224 3.0 3.0 0.00 0.00 0.00 93 1005.6
20170623104034 77 211 0.0 0.0 0.00 0.00 0.00 93 1005.6
20170623102536 77 238 4.0 4.0 0.00 0.00 0.00 93 1005.6
20170623101031 77 277 5.0 5.0 0.00 0.00 0.00 93 1005.9
20170623095532 77 263 3.0 4.0 0.00 0.00 0.00 93 1005.9
20170623094030 77 191 3.0 3.0 0.00 0.00 0.00 93 1006.0
20170623092529 77 149 4.0 0.0 0.00 0.00 0.00 93 1005.9
20170623091026 77 188 6.0 3.0 0.00 0.00 0.00 93 1005.9
20170623085528 77 236 6.0 4.0 0.00 0.00 0.00 93 1006.1
20170623084024 77 271 6.0 7.0 0.00 0.00 0.00 93 1006.3
20170623082526 77 249 0.0 0.0 0.00 0.00 0.00 94 1006.5
20170623081022 77 177 4.0 4.0 0.00 0.00 0.00 94 1006.6
20170623075520 77 210 1.0 2.0 0.00 0.00 0.00 94 1006.8
20170623074017 77 149 0.0 0.0 0.00 0.00 0.00 94 1006.9
20170623072519 77 138 1.0 0.0 0.00 0.00 0.00 94 1007.1
20170623071016 77 222 0.0 0.0 0.00 0.00 0.00 94 1007.1
20170623065516 78 180 0.0 0.0 0.00 0.00 0.00 93 1007.1
20170623062514 78 243 0.0 0.0 0.00 0.00 0.00 93 1007.0
20170623055514 78 195 0.0 0.0 0.00 0.00 0.00 92 1006.7
20170623054008 78 197 3.0 3.0 0.00 0.00 0.00 92 1006.7
20170623052509 78 224 2.0 0.0 0.00 0.00 0.00 92 1006.7
20170623051008 78 136 1.0 6.0 0.00 0.00 0.00 91 1006.9
20170623045508 78 252 0.0 0.0 0.00 0.00 0.00 91 1007.0
20170623044007 79 277 0.0 0.0 0.00 0.00 0.00 90 1007.1
20170623042508 79 290 0.0 0.0 0.00 0.00 0.00 88 1007.0
20170623040959 79 62 1.0 0.0 0.00 0.00 0.00 88 1007.1
20170623035500 79 165 5.0 5.0 0.00 0.00 0.00 87 1007.2
20170623033959 79 288 4.0 3.0 0.00 0.00 0.00 86 1007.4
20170623032500 80 142 3.0 0.0 0.00 0.00 0.00 84 1007.4
20170623030956 80 191 4.0 4.0 0.00 0.00 0.00 84 1007.2
20170623025458 80 127 3.0 4.0 0.00 0.00 0.00 82 1007.0
20170623023956 80 198 7.0 6.0 0.00 0.00 0.00 81 1007.0
20170623022458 80 97 2.0 0.0 0.00 0.00 0.00 79 1006.8
20170623020953 81 104 4.0 2.0 0.00 0.00 0.00 78 1006.6